This demonstration page uses our WeatherBlox Daily Observations layout. Learn more.

Left ArrowRight Arrow

Hourly Observations for May 27, 2018

Temp ( °F °C ) Dew Point ( °F °C ) Humidity (%) Winds ( mph kmh ) Pressure ( in mb ) Visibility ( mi km ) Precip ( " mm )
12:56 am 00:56 Clear 75 23.9 57 13.9 54 54 S 12 19 29.75 1007 10 16 0.00 0.00
1:56 am 01:56 Clear 75 23.9 57 13.9 54 54 SSW 13 20 29.74 1007 10 16 0.00 0.00
2:56 am 02:56 Clear 74 23.3 58 14.4 57 57 SSW 15 24 29.75 1007 10 16 0.00 0.00
3:56 am 03:56 Clear 72 22.2 58 14.4 61 61 SSW 10 17 29.77 1008 10 16 0.00 0.00
4:56 am 04:56 Clear 70 21.1 58 14.4 66 66 SW 9 15 29.78 1008 10 16 0.00 0.00
5:56 am 05:56 Clear 68 20 59 15 73 73 SSW 8 13 29.79 1009 10 16 0.00 0.00
6:56 am 06:56 Sunny 65 18.3 59 15 81 81 SSW 6 9 29.80 1009 10 16 0.00 0.00
7:09 am 07:09 Partly Cloudy 66 19 61 16 83 83 SSW 7 11 29.80 1009 10 16 0.00 0.00
7:56 am 07:56 Sunny 73 22.8 62 16.7 69 69 SSW 12 19 29.81 1009 10 16 0.00 0.00
8:56 am 08:56 Sunny 79 26.1 66 18.9 65 65 SW 20 31 29.80 1009 10 16 0.00 0.00
9:56 am 09:56 Sunny 83 28.3 66 18.9 57 57 SSW 17 28 29.80 1009 10 16 0.00 0.00
10:56 am 10:56 Sunny 85 29.4 61 16.1 45 45 SSW 17 28 29.81 1010 10 16 0.00 0.00
11:52 am 11:52 Mostly Sunny 88 31 63 17 43 43 SSW 14 22 29.71 1006 10 16 0.00 0.00
11:56 am 11:56 Mostly Sunny 88 31.1 61 16.1 40 40 SSW 15 24 29.81 1010 10 16 0.00 0.00
12:56 pm 12:56 Sunny 91 32.8 56 13.3 31 31 SSW 22 35 29.80 1009 10 16 0.00 0.00
1:56 pm 13:56 Sunny 92 33.3 55 12.8 29 29 S 23 37 29.79 1009 10 16 0.00 0.00
2:56 pm 14:56 Sunny 94 34.4 57 13.9 29 29 S 21 33 29.77 1008 10 16 0.00 0.00
3:56 pm 15:56 Sunny 92 33.3 55 12.8 29 29 S 23 37 29.77 1008 10 16 0.00 0.00
4:45 pm 16:45 Mostly Sunny 93 34 54 12 26 26 SSE 20 31 29.68 1005 10 16 0.00 0.00
4:56 pm 16:56 Sunny 94 34.4 55 12.8 27 27 SSE 22 35 29.75 1008 10 16 0.00 0.00
5:56 pm 17:56 Sunny 92 33.3 53 11.7 27 27 SSE 21 33 29.74 1007 10 16 0.00 0.00
6:56 pm 18:56 Sunny 90 32.2 53 11.7 28 28 SSE 21 33 29.72 1007 10 16 0.00 0.00
7:56 pm 19:56 Sunny 86 30 52 11.1 31 31 SSE 17 28 29.76 1008 10 16 0.00 0.00
8:56 pm 20:56 Sunny 83 28.3 52 11.1 34 34 SSE 12 19 29.78 1009 9 14 0.00 0.00
9:56 pm 21:56 Clear 80 26.7 55 12.8 42 42 SSE 12 19 29.80 1009 10 16 0.00 0.00
10:56 pm 22:56 Clear 79 26.1 56 13.3 45 45 S 14 22 29.84 1011 10 16 0.00 0.00
11:56 pm 23:56 Clear 78 25.6 56 13.3 47 47 SSE 10 17 29.84 1011 10 16 0.00 0.00

Powered by AerisWeather